timestamp,wind_dir_avg,wind_spd_max_dir,wind_spd_avg,wind_spd_gust,battery_voltage,lat,long
2018-03-02 00:00:00+00:00,40.0,39.0,4.79,5.44,,47.59359,-54.27349
2018-03-02 00:10:00+00:00,48.0,50.0,4.86,5.53,,47.59359,-54.27349
2018-03-02 00:20:00+00:00,44.0,49.0,5.23,6.21,,47.59359,-54.27349
2018-03-02 00:30:00+00:00,46.0,43.0,4.95,5.4,,47.59359,-54.27349
2018-03-02 00:40:00+00:00,48.0,50.0,5.87,6.7,,47.59359,-54.27349
2018-03-02 00:50:00+00:00,54.0,53.0,5.91,6.57,,47.59359,-54.27349
2018-03-02 01:00:00+00:00,51.0,51.0,6.21,6.57,,47.59359,-54.27349
2018-03-02 01:10:00+00:00,51.0,55.0,6.38,7.09,,47.59359,-54.27349
2018-03-02 01:20:00+00:00,51.0,54.0,6.57,7.27,,47.59359,-54.27349
2018-03-02 01:30:00+00:00,55.0,54.0,7.05,7.63,,47.59359,-54.27349
2018-03-02 01:40:00+00:00,52.0,53.0,6.54,7.08,,47.59359,-54.27349
2018-03-02 01:50:00+00:00,59.0,58.0,6.46,7.07,,47.59359,-54.27349
2018-03-02 02:00:00+00:00,59.0,61.0,6.7,7.33,,47.59359,-54.27349
2018-03-02 02:10:00+00:00,62.0,61.0,6.14,7.0,,47.59359,-54.27349
2018-03-02 02:20:00+00:00,65.0,67.0,6.49,7.0,,47.59359,-54.27349
2018-03-02 02:30:00+00:00,63.0,66.0,5.55,6.89,,47.59359,-54.27349
2018-03-02 02:40:00+00:00,64.0,67.0,5.01,5.45,,47.59359,-54.27349
2018-03-02 02:50:00+00:00,53.0,54.0,6.1,6.98,,47.59359,-54.27349
2018-03-02 03:00:00+00:00,57.0,56.0,6.27,6.99,,47.59359,-54.27349
2018-03-02 03:10:00+00:00,57.0,60.0,7.04,8.03,,47.59359,-54.27349
2018-03-02 03:20:00+00:00,54.0,58.0,6.77,8.51,,47.59359,-54.27349
2018-03-02 03:30:00+00:00,51.0,60.0,6.32,7.48,,47.59359,-54.27349
2018-03-02 03:40:00+00:00,62.0,67.0,8.85,11.2,,47.59359,-54.27349
2018-03-02 03:50:00+00:00,55.0,67.0,7.95,11.33,,47.59359,-54.27349
2018-03-02 04:00:00+00:00,51.0,60.0,6.71,8.62,,47.59359,-54.27349
2018-03-02 04:10:00+00:00,49.0,45.0,6.4,7.04,,47.59359,-54.27349
2018-03-02 04:20:00+00:00,46.0,49.0,6.48,7.0,,47.59359,-54.27349
2018-03-02 04:30:00+00:00,42.0,45.0,6.39,6.95,,47.59359,-54.27349
2018-03-02 04:40:00+00:00,30.0,32.0,6.15,7.05,,47.59359,-54.27349
2018-03-02 04:50:00+00:00,38.0,46.0,5.3,5.81,,47.59359,-54.27349
2018-03-02 05:00:00+00:00,47.0,50.0,6.31,6.78,,47.59359,-54.27349
2018-03-02 05:10:00+00:00,47.0,45.0,7.79,8.85,,47.59359,-54.27349
2018-03-02 05:20:00+00:00,51.0,55.0,7.8,8.92,,47.59359,-54.27349
2018-03-02 05:30:00+00:00,57.0,60.0,6.99,7.73,,47.59359,-54.27349
2018-03-02 05:40:00+00:00,65.0,62.0,6.6,7.79,,47.59359,-54.27349
2018-03-02 05:50:00+00:00,68.0,67.0,6.46,6.97,,47.59359,-54.27349
2018-03-02 06:00:00+00:00,72.0,73.0,5.8,6.49,,47.59359,-54.27349
2018-03-02 06:10:00+00:00,78.0,78.0,6.44,7.1,,47.59359,-54.27349
2018-03-02 06:20:00+00:00,82.0,83.0,6.36,7.13,,47.59359,-54.27349
2018-03-02 06:30:00+00:00,80.0,89.0,4.91,5.74,,47.59359,-54.27349
2018-03-02 06:40:00+00:00,73.0,70.0,4.46,5.3,,47.59359,-54.27349
2018-03-02 06:50:00+00:00,62.0,64.0,4.12,4.85,,47.59359,-54.27349
2018-03-02 07:00:00+00:00,21.0,23.0,4.4,4.98,,47.59359,-54.27349
2018-03-02 07:10:00+00:00,18.0,12.0,3.31,3.74,,47.59359,-54.27349
2018-03-02 07:20:00+00:00,27.0,32.0,4.86,5.82,,47.59359,-54.27349
2018-03-02 07:30:00+00:00,36.0,35.0,6.45,6.93,,47.59359,-54.27349
2018-03-02 07:40:00+00:00,45.0,44.0,7.27,7.82,,47.59359,-54.27349
2018-03-02 07:50:00+00:00,52.0,51.0,7.19,7.58,,47.59359,-54.27349
2018-03-02 08:00:00+00:00,45.0,44.0,8.08,8.88,,47.59359,-54.27349
2018-03-02 08:10:00+00:00,51.0,50.0,6.62,7.1,,47.59359,-54.27349
2018-03-02 08:20:00+00:00,50.0,52.0,5.78,6.41,,47.59359,-54.27349
2018-03-02 08:30:00+00:00,48.0,49.0,6.18,6.65,,47.59359,-54.27349
2018-03-02 08:40:00+00:00,48.0,51.0,6.31,6.76,,47.59359,-54.27349
2018-03-02 08:50:00+00:00,54.0,52.0,5.85,6.57,,47.59359,-54.27349
2018-03-02 09:00:00+00:00,57.0,54.0,5.68,6.47,,47.59359,-54.27349
2018-03-02 09:10:00+00:00,55.0,55.0,6.84,7.75,,47.59359,-54.27349
2018-03-02 09:20:00+00:00,61.0,63.0,7.51,8.5,,47.59359,-54.27349
2018-03-02 09:30:00+00:00,64.0,63.0,8.15,9.46,,47.59359,-54.27349
2018-03-02 09:40:00+00:00,58.0,58.0,7.86,8.92,,47.59359,-54.27349
2018-03-02 09:50:00+00:00,70.0,70.0,7.6,8.52,,47.59359,-54.27349
2018-03-02 10:00:00+00:00,78.0,77.0,7.08,8.42,,47.59359,-54.27349
2018-03-02 10:10:00+00:00,76.0,74.0,7.92,9.0,,47.59359,-54.27349
2018-03-02 10:20:00+00:00,64.0,66.0,9.29,10.87,,47.59359,-54.27349
2018-03-02 10:30:00+00:00,61.0,58.0,8.87,10.05,,47.59359,-54.27349
2018-03-02 10:40:00+00:00,56.0,58.0,8.64,9.58,,47.59359,-54.27349
2018-03-02 10:50:00+00:00,59.0,62.0,6.84,8.1,,47.59359,-54.27349
2018-03-02 11:00:00+00:00,51.0,52.0,8.48,9.18,,47.59359,-54.27349
2018-03-02 11:10:00+00:00,47.0,46.0,7.4,8.06,,47.59359,-54.27349
2018-03-02 11:20:00+00:00,56.0,58.0,8.41,9.33,,47.59359,-54.27349
2018-03-02 11:30:00+00:00,56.0,54.0,8.96,10.25,,47.59359,-54.27349
2018-03-02 11:40:00+00:00,59.0,57.0,8.17,9.3,,47.59359,-54.27349
2018-03-02 11:50:00+00:00,57.0,58.0,8.52,9.24,,47.59359,-54.27349
2018-03-02 12:00:00+00:00,54.0,53.0,7.44,8.37,,47.59359,-54.27349
2018-03-02 12:10:00+00:00,59.0,58.0,8.65,9.72,,47.59359,-54.27349
2018-03-02 12:20:00+00:00,66.0,67.0,8.81,9.67,,47.59359,-54.27349
2018-03-02 12:30:00+00:00,59.0,59.0,9.32,10.12,,47.59359,-54.27349
2018-03-02 12:40:00+00:00,56.0,55.0,8.81,9.71,,47.59359,-54.27349
2018-03-02 12:50:00+00:00,58.0,60.0,7.88,9.15,,47.59359,-54.27349
2018-03-02 13:00:00+00:00,65.0,65.0,8.22,9.15,,47.59359,-54.27349
2018-03-02 13:10:00+00:00,58.0,56.0,8.71,9.87,,47.59359,-54.27349
2018-03-02 13:20:00+00:00,56.0,57.0,7.48,8.63,,47.59359,-54.27349
2018-03-02 13:30:00+00:00,60.0,57.0,7.15,7.82,,47.59359,-54.27349
2018-03-02 13:40:00+00:00,56.0,54.0,7.87,8.64,,47.59359,-54.27349
2018-03-02 13:50:00+00:00,61.0,60.0,8.18,8.98,,47.59359,-54.27349
2018-03-02 14:00:00+00:00,58.0,58.0,7.74,8.71,,47.59359,-54.27349
2018-03-02 14:10:00+00:00,53.0,46.0,8.74,10.22,,47.59359,-54.27349
2018-03-02 14:20:00+00:00,53.0,53.0,7.43,8.21,,47.59359,-54.27349
2018-03-02 14:30:00+00:00,51.0,50.0,7.45,8.33,,47.59359,-54.27349
2018-03-02 14:40:00+00:00,49.0,50.0,6.74,7.64,,47.59359,-54.27349
2018-03-02 14:50:00+00:00,51.0,51.0,7.51,8.09,,47.59359,-54.27349
2018-03-02 15:00:00+00:00,60.0,59.0,6.56,7.01,,47.59359,-54.27349
2018-03-02 15:10:00+00:00,56.0,55.0,7.31,7.8,,47.59359,-54.27349
2018-03-02 15:20:00+00:00,56.0,55.0,7.03,7.86,,47.59359,-54.27349
2018-03-02 15:30:00+00:00,56.0,57.0,7.4,8.39,,47.59359,-54.27349
2018-03-02 15:40:00+00:00,48.0,45.0,7.57,8.39,,47.59359,-54.27349
2018-03-02 15:50:00+00:00,59.0,58.0,6.6,7.1,,47.59359,-54.27349
2018-03-02 16:00:00+00:00,61.0,64.0,7.05,8.04,,47.59359,-54.27349
2018-03-02 16:10:00+00:00,70.0,69.0,8.39,9.09,,47.59359,-54.27349
2018-03-02 16:20:00+00:00,70.0,71.0,7.82,8.75,,47.59359,-54.27349
2018-03-02 16:30:00+00:00,66.0,65.0,7.74,8.65,,47.59359,-54.27349
2018-03-02 16:40:00+00:00,64.0,64.0,6.74,7.47,,47.59359,-54.27349
2018-03-02 16:50:00+00:00,60.0,60.0,6.61,7.19,,47.59359,-54.27349
2018-03-02 17:00:00+00:00,67.0,73.0,6.86,8.23,,47.59359,-54.27349
2018-03-02 17:10:00+00:00,69.0,69.0,6.39,7.09,,47.59359,-54.27349
2018-03-02 17:20:00+00:00,70.0,72.0,5.95,6.74,,47.59359,-54.27349
2018-03-02 17:30:00+00:00,75.0,80.0,6.26,7.21,,47.59359,-54.27349
2018-03-02 17:40:00+00:00,58.0,59.0,5.88,6.93,,47.59359,-54.27349
2018-03-02 17:50:00+00:00,54.0,51.0,6.2,6.81,,47.59359,-54.27349
2018-03-02 18:00:00+00:00,54.0,54.0,5.66,6.19,,47.59359,-54.27349
2018-03-02 18:10:00+00:00,67.0,68.0,5.38,6.2,,47.59359,-54.27349
2018-03-02 18:20:00+00:00,70.0,70.0,6.02,6.65,,47.59359,-54.27349
2018-03-02 18:30:00+00:00,67.0,69.0,6.36,7.55,,47.59359,-54.27349
2018-03-02 18:40:00+00:00,64.0,65.0,6.32,7.34,,47.59359,-54.27349
2018-03-02 18:50:00+00:00,62.0,63.0,5.39,5.92,,47.59359,-54.27349
2018-03-02 19:00:00+00:00,64.0,63.0,5.58,6.22,,47.59359,-54.27349
2018-03-02 19:10:00+00:00,64.0,62.0,4.89,5.48,,47.59359,-54.27349
2018-03-02 19:20:00+00:00,65.0,69.0,4.23,5.0,,47.59359,-54.27349
2018-03-02 19:30:00+00:00,54.0,55.0,5.32,5.91,,47.59359,-54.27349
2018-03-02 19:40:00+00:00,58.0,59.0,7.26,8.32,,47.59359,-54.27349
2018-03-02 19:50:00+00:00,63.0,64.0,9.5,11.14,,47.59359,-54.27349
2018-03-02 20:00:00+00:00,60.0,58.0,8.2,9.32,,47.59359,-54.27349
2018-03-02 20:10:00+00:00,54.0,56.0,8.01,8.63,,47.59359,-54.27349
2018-03-02 20:20:00+00:00,58.0,61.0,8.24,9.41,,47.59359,-54.27349
2018-03-02 20:30:00+00:00,69.0,70.0,8.35,9.82,,47.59359,-54.27349
2018-03-02 20:40:00+00:00,74.0,72.0,9.12,10.25,,47.59359,-54.27349
2018-03-02 20:50:00+00:00,75.0,76.0,8.16,9.73,,47.59359,-54.27349
2018-03-02 21:00:00+00:00,71.0,73.0,8.63,10.75,,47.59359,-54.27349
2018-03-02 21:10:00+00:00,70.0,72.0,8.43,9.23,,47.59359,-54.27349
2018-03-02 21:20:00+00:00,66.0,64.0,7.82,8.98,,47.59359,-54.27349
2018-03-02 21:30:00+00:00,77.0,75.0,6.92,8.09,,47.59359,-54.27349
2018-03-02 21:40:00+00:00,75.0,71.0,7.34,9.12,,47.59359,-54.27349
2018-03-02 21:50:00+00:00,67.0,65.0,8.4,9.37,,47.59359,-54.27349
2018-03-02 22:00:00+00:00,69.0,69.0,8.1,9.45,,47.59359,-54.27349
2018-03-02 22:10:00+00:00,62.0,64.0,7.52,8.37,,47.59359,-54.27349
2018-03-02 22:20:00+00:00,58.0,57.0,8.01,8.71,,47.59359,-54.27349
2018-03-02 22:30:00+00:00,61.0,58.0,9.04,10.19,,47.59359,-54.27349
2018-03-02 22:40:00+00:00,66.0,69.0,8.22,9.51,,47.59359,-54.27349
2018-03-02 22:50:00+00:00,65.0,68.0,7.19,8.04,,47.59359,-54.27349
2018-03-02 23:00:00+00:00,69.0,71.0,7.51,8.61,,47.59359,-54.27349
2018-03-02 23:10:00+00:00,70.0,70.0,8.34,9.52,,47.59359,-54.27349
2018-03-02 23:20:00+00:00,69.0,74.0,7.29,8.25,,47.59359,-54.27349
2018-03-02 23:30:00+00:00,68.0,69.0,7.74,8.81,,47.59359,-54.27349
2018-03-02 23:40:00+00:00,67.0,68.0,7.94,9.13,,47.59359,-54.27349
2018-03-02 23:50:00+00:00,64.0,74.0,7.64,8.59,,47.59359,-54.27349
